Terminal Aerodrome Forecast
Issued by NWS

Home | Current Version | Previous Version | Text Only | Print | Product List | Glossary On
Versions: 1 2 3 4 5 6 7 8 9 10 11 12 13 14 15 16 17 18 19 20 21 22 23 24 25 26 27 28 29
000
FTUS45 KGJT 030534
TAFEGE
TAF
KEGE 030534Z 0306/0406 13005KT P6SM SCT100 BKN150
     FM031400 VRB03KT P6SM VCSH BKN080
     FM031900 22010KT P6SM VCTS BKN080CB
     FM040200 09007KT P6SM BKN100
      AMD LTD TO CLD VIS AND WIND TIL 031300=

USA.gov is the U.S. government's official web portal to all federal, state and local government web resources and services.